Date String (YYYY-MM-DD hh:mm:ss) UTC,Instrument flags,absolute air pressure of the measurement (hPa),sample flow rate (lpm),inlet stack bypass flow (lpm),air temperature of the measurement (°C),ambient temperature measured by the external sensor (°C),aerosol sample conditioner tube jacket temperature (°C),OPC LED temperature (°C),internal box temperature (°C),relative humidity of the measurement (%),span deviation,mass concentration of particles derived from Lorenz-Mie calculation of OPC scattering (μg/m³),mass concentration of particles derived from Lorenz-Mie calculation of OPC scattering (μg/m³),mass concentration of particles derived from Lorenz-Mie calculation of OPC scattering (μg/m³)
DateTimeUTC,F1_M11,P_M11,Q1_M11,Q2_M11,T1_M11,T2_M11,T3_M11,T4_M11,T5_M11,U1_M11,ZSPAN_M11,X2_M11,X0_M11,X1_M11
2023-12-27 14:00:00,SystemResetWarning,0830.2,5.00,000.00,019.4,018.6,000.0,027.6,020.7,15.8,0000.0,0000.41,0000.56,0000.36
2023-12-27 14:01:00,SystemResetWarning,0830.2,5.00,000.00,019.4,018.6,000.0,027.7,020.7,15.3,0000.0,0000.41,0000.57,0000.35
2023-12-27 14:02:00,SystemResetWarning,0830.1,5.00,000.00,019.4,018.7,000.0,027.7,020.7,14.7,0000.0,0000.43,0000.59,0000.34
2023-12-27 14:03:00,SystemResetWarning,0830.1,5.00,000.00,019.4,018.7,000.0,027.7,020.7,14.6,0000.0,0000.43,0000.60,0000.34
2023-12-27 14:04:00,SystemResetWarning,0830.1,4.99,000.00,019.4,018.7,000.0,027.7,020.7,14.5,0000.0,0000.42,0000.57,0000.33
2023-12-27 14:05:00,SystemResetWarning,0830.1,5.00,000.00,019.4,018.7,000.0,027.7,020.7,14.5,0000.0,0000.43,0000.59,0000.34
2023-12-27 14:06:00,SystemResetWarning,0830.1,4.99,000.00,019.4,018.7,000.0,027.7,020.7,14.6,0000.0,0000.44,0000.62,0000.34
2023-12-27 14:07:00,SystemResetWarning,0830.1,5.00,000.00,019.4,018.7,000.0,027.7,020.7,14.8,0000.0,0000.44,0000.63,0000.34
2023-12-27 14:08:00,SystemResetWarning,0830.2,5.00,000.00,019.4,018.7,000.0,027.7,020.7,15.0,0000.0,0000.46,0000.66,0000.34
2023-12-27 14:09:00,SystemResetWarning,0830.2,5.00,000.00,019.4,018.7,000.0,027.7,020.7,15.1,0000.0,0000.47,0000.68,0000.34
2023-12-27 14:10:00,SystemResetWarning,0830.1,5.00,000.00,019.4,018.8,000.0,027.7,020.8,15.0,0000.0,0000.50,0000.83,0000.35
2023-12-27 14:11:00,SystemResetWarning,0830.1,5.01,000.00,019.4,018.8,000.0,027.7,020.8,14.9,0000.0,0000.51,0000.87,0000.36
2023-12-27 14:12:00,SystemResetWarning,0830.1,5.01,000.00,019.4,018.8,000.0,027.7,020.8,15.4,0000.0,0000.52,0000.90,0000.36
2023-12-27 14:13:00,SystemResetWarning,0830.1,5.00,000.00,019.4,018.8,000.0,027.7,020.8,14.9,0000.0,0000.50,0000.89,0000.37
2023-12-27 14:14:00,SystemResetWarning,0830.1,5.00,000.00,019.4,018.8,000.0,027.7,020.8,14.9,0000.0,0000.51,0000.90,0000.38
2023-12-27 14:15:00,SystemResetWarning,0830.1,4.99,000.00,019.4,018.8,000.0,027.7,020.8,14.9,0000.0,0000.52,0000.99,0000.39
2023-12-27 14:16:00,SystemResetWarning,0830.1,4.99,000.00,019.4,018.8,000.0,027.7,020.8,14.8,0000.0,0000.53,0001.01,0000.39
2023-12-27 14:17:00,SystemResetWarning,0830.1,5.00,000.00,019.4,018.8,000.0,027.7,020.8,14.8,0000.0,0000.54,0001.02,0000.40
2023-12-27 14:18:00,SystemResetWarning,0830.2,5.00,000.00,019.4,018.8,000.0,027.7,020.8,14.9,0000.0,0000.56,0001.04,0000.41
2023-12-27 14:19:00,SystemResetWarning,0830.2,4.99,000.00,019.4,018.8,000.0,027.7,020.8,14.9,0000.0,0000.54,0001.01,0000.42
2023-12-27 14:20:00,SystemResetWarning,0830.2,5.00,000.00,019.5,018.8,000.0,027.7,020.8,14.8,0000.0,0000.55,0001.02,0000.44
2023-12-27 14:21:00,SystemResetWarning,0830.2,5.01,000.00,019.5,018.9,000.0,027.7,020.8,14.9,0000.0,0000.57,0000.94,0000.45
2023-12-27 14:22:00,SystemResetWarning,0830.2,5.01,000.00,019.5,018.9,000.0,027.7,020.8,15.0,0000.0,0000.57,0000.92,0000.45
2023-12-27 14:23:00,SystemResetWarning,0830.2,5.01,000.00,019.5,018.9,000.0,027.7,020.8,14.9,0000.0,0000.60,0000.95,0000.47
2023-12-27 14:24:00,SystemResetWarning,0830.2,5.01,000.00,019.5,018.9,000.0,027.7,020.8,15.0,0000.0,0000.64,0001.03,0000.49
2023-12-27 14:25:00,SystemResetWarning,0830.3,5.00,000.00,019.5,018.9,000.0,027.8,020.8,14.9,0000.0,0000.66,0001.08,0000.50
2023-12-27 14:26:00,SystemResetWarning,0830.2,5.00,000.00,019.5,018.9,000.0,027.8,020.8,14.9,0000.0,0000.68,0001.03,0000.51
2023-12-27 14:27:00,SystemResetWarning,0830.3,5.00,000.00,019.5,018.9,000.0,027.8,020.8,15.2,0000.0,0000.69,0001.01,0000.52
2023-12-27 14:28:00,SystemResetWarning,0830.3,5.00,000.00,019.5,018.9,000.0,027.8,020.8,15.3,0000.0,0000.71,0001.06,0000.53
2023-12-27 14:29:00,SystemResetWarning,0830.2,5.00,000.00,019.5,018.9,000.0,027.8,020.8,15.3,0000.0,0000.75,0001.20,0000.55
2023-12-27 14:30:00,SystemResetWarning,0830.2,5.00,000.00,019.5,018.9,000.0,027.8,020.8,15.3,0000.0,0000.79,0001.31,0000.56
2023-12-27 14:31:00,SystemResetWarning,0830.2,5.00,000.00,019.5,018.9,000.0,027.8,020.8,15.1,0000.0,0000.80,0001.37,0000.56
2023-12-27 14:32:00,SystemResetWarning,0830.2,5.01,000.00,019.4,018.9,000.0,027.8,020.8,14.9,0000.0,0000.79,0001.36,0000.55
2023-12-27 14:33:00,SystemResetWarning,0830.3,5.00,000.00,019.4,018.9,000.0,027.8,020.8,14.8,0000.0,0000.80,0001.36,0000.56
2023-12-27 14:34:00,SystemResetWarning,0830.3,5.00,000.00,019.5,018.9,000.0,027.8,020.7,14.7,0000.0,0000.80,0002.33,0000.57
2023-12-27 14:35:00,SystemResetWarning,0830.3,5.00,000.00,019.5,018.9,000.0,027.8,020.7,14.8,0000.0,0000.77,0002.54,0000.56
2023-12-27 14:36:00,SystemResetWarning,0830.3,4.99,000.00,019.5,018.9,000.0,027.8,020.7,15.0,0000.0,0000.75,0002.52,0000.56
2023-12-27 14:37:00,SystemResetWarning,0830.3,5.00,000.00,019.5,018.8,000.0,027.8,020.7,15.3,0000.0,0000.74,0002.61,0000.57
2023-12-27 14:38:00,SystemResetWarning,0830.3,4.99,000.00,019.5,018.8,000.0,027.8,020.8,15.3,0000.0,0000.74,0002.61,0000.57
2023-12-27 14:39:00,SystemResetWarning,0830.3,5.00,000.00,019.4,018.8,000.0,027.8,020.8,15.3,0000.0,0000.74,0002.59,0000.57
2023-12-27 14:40:00,SystemResetWarning,0830.3,5.00,000.00,019.4,018.8,000.0,027.8,020.7,15.3,0000.0,0000.72,0002.52,0000.57
2023-12-27 14:41:00,SystemResetWarning,0830.3,5.00,000.00,019.4,018.8,000.0,027.8,020.7,15.4,0000.0,0000.72,0002.46,0000.56
2023-12-27 14:42:00,SystemResetWarning,0830.4,4.99,000.00,019.4,018.8,000.0,027.8,020.7,15.4,0000.0,0000.77,0002.62,0000.56
2023-12-27 14:43:00,SystemResetWarning,0830.4,5.00,000.00,019.4,018.8,000.0,027.8,020.7,15.5,0000.0,0000.81,0002.72,0000.57
2023-12-27 14:44:00,SystemResetWarning,0830.4,5.00,000.00,019.4,018.8,000.0,027.8,020.7,15.5,0000.0,0000.85,0002.82,0000.59
2023-12-27 14:45:00,SystemResetWarning,0830.5,5.00,000.00,019.4,018.8,000.0,027.8,020.6,15.5,0000.0,0000.88,0002.42,0000.58
2023-12-27 14:46:00,SystemResetWarning,0830.5,5.00,000.00,019.4,018.8,000.0,027.8,020.6,15.7,0000.0,0000.88,0001.65,0000.58
2023-12-27 14:47:00,SystemResetWarning,0830.4,5.01,000.00,019.4,018.8,000.0,027.8,020.6,15.8,0000.0,0000.91,0001.72,0000.58
2023-12-27 14:48:00,SystemResetWarning,0830.5,5.00,000.00,019.4,018.8,000.0,027.8,020.6,15.9,0000.0,0000.91,0001.66,0000.57
2023-12-27 14:49:00,SystemResetWarning,0830.5,5.01,000.00,019.4,018.8,000.0,027.8,020.6,16.0,0000.0,0000.93,0001.75,0000.57
2023-12-27 14:50:00,SystemResetWarning,0830.6,4.98,000.00,019.4,018.8,000.0,027.8,020.6,16.2,0000.0,0000.93,0001.75,0000.58
2023-12-27 14:51:00,SystemResetWarning,0830.6,5.00,000.00,019.4,018.8,000.0,027.7,020.7,16.3,0000.0,0000.95,0001.88,0000.58
2023-12-27 14:52:00,SystemResetWarning,0830.6,5.01,000.00,019.4,018.8,000.0,027.8,020.6,16.5,0000.0,0000.92,0001.89,0000.58
2023-12-27 14:53:00,SystemResetWarning,0830.7,5.01,000.00,019.4,018.8,000.0,027.7,020.6,16.6,0000.0,0000.89,0001.87,0000.58
2023-12-27 14:54:00,SystemResetWarning,0830.7,4.99,000.00,019.4,018.8,000.0,027.7,020.6,16.8,0000.0,0000.82,0001.71,0000.56
2023-12-27 14:55:00,SystemResetWarning,0830.7,4.99,000.00,019.4,018.8,000.0,027.7,020.7,17.0,0000.0,0000.79,0001.66,0000.56
2023-12-27 14:56:00,SystemResetWarning,0830.7,5.00,000.00,019.4,018.8,000.0,027.7,020.7,17.0,0000.0,0000.77,0001.70,0000.56
2023-12-27 14:57:00,SystemResetWarning,0830.8,5.00,000.00,019.4,018.8,000.0,027.7,020.7,17.1,0000.0,0000.77,0001.73,0000.56
2023-12-27 14:58:00,SystemResetWarning,0830.7,5.01,000.00,019.4,018.8,000.0,027.7,020.7,17.1,0000.0,0000.79,0002.00,0000.56
2023-12-27 14:59:00,SystemResetWarning,0830.8,5.01,000.00,019.4,018.8,000.0,027.7,020.7,17.1,0000.0,0000.78,0002.45,0000.56
